This demonstration page uses our WeatherBlox Daily Observations layout. Learn more.

Left ArrowRight Arrow

Hourly Observations for December 11, 2021

Temp ( °F °C ) Dew Point ( °F °C ) Humidity (%) Winds ( mph kmh ) Pressure ( in mb ) Visibility ( mi km ) Precip ( " mm )
6:30 am 06:30 Clear 63 17 57 14 83 83 S 10 17 29.43 997 10 16 N/A
6:45 am 06:45 Mostly Cloudy with Light Rain 61 16 57 14 88 88 S 14 22 29.44 997 10 16 N/A
7:15 am 07:15 Cloudy with Light Rain 61 16 57 14 88 88 SW 23 37 29.47 998 2 2 N/A
7:30 am 07:30 Cloudy with Light Rain 59 15 55 13 88 88 SSW 20 31 29.45 997 7 11 N/A
7:45 am 07:45 Cloudy with Light Rain 59 15 55 13 88 88 SW 22 35 29.46 998 7 11 N/A
8:45 am 08:45 Mostly Cloudy 59 15 55 13 88 88 SW 12 19 29.47 998 10 16 N/A
9:45 am 09:45 Mostly Cloudy 48 9 41 5 76 76 W 18 30 29.61 1003 10 16 N/A
10:45 am 10:45 Cloudy 41 5 34 1 76 76 W 21 33 29.73 1007 10 16 N/A
11:45 am 11:45 Cloudy 39 4 28 -2 65 65 W 31 50 29.79 1009 10 16 N/A
12:00 pm 12:00 Cloudy 37 3 28 -2 70 70 W 25 41 29.81 1009 10 16 N/A
12:45 pm 12:45 Cloudy 39 4 28 -2 65 65 W 23 37 29.83 1010 10 16 N/A
1:45 pm 13:45 Cloudy 37 3 28 -2 70 70 W 21 33 29.88 1012 10 16 N/A
2:50 pm 14:50 Cloudy 37 3 27 -3 65 65 WNW 20 31 29.96 1014 10 16 N/A
3:58 pm 15:58 Cloudy 37 3 27 -3 65 65 W 18 30 29.99 1015 10 16 N/A
4:55 pm 16:55 Mostly Cloudy 37 3 27 -3 65 65 W 13 20 30.05 1018 10 16 N/A
5:45 pm 17:45 Mostly Cloudy 36 2 27 -3 70 70 W 14 22 30.09 1019 10 16 N/A
6:45 pm 18:45 Partly Cloudy 34 1 27 -3 75 75 WSW 7 11 30.14 1021 10 16 N/A
7:12 pm 19:12 Partly Cloudy 30 -1 25 -4 80 80 SW 9 15 30.17 1022 10 16 N/A
8:50 pm 20:50 Mostly Clear 30 -1 25 -4 80 80 SW 9 15 30.20 1023 10 16 N/A
9:50 pm 21:50 Mostly Clear 28 -2 25 -4 86 86 SW 6 9 30.21 1023 10 16 N/A

Powered by AerisWeather